OMD1106 YSSY-NZAA

Flight info

Callsign OMD1106
Flight time 2h 32m
Altitude 39000
Route EVONN L521 LUNBI
Aircraft A20N/M-SDE2E3FGHIRWXY/LB1

Departure

Time 2026-05-04 22:28
Airport Sydney Kingsford Smith International Airport (YSSY)

Arrival

Time 2026-05-05 01:00
Airport Auckland International Airport (NZAA)
Time Latitude Longitude Altitude Speed Heading
2026-05-04 22:01 -33.93048 151.16754 20 ft 0 kts 257°
2026-05-04 22:18 -33.93046 151.16763 -7 ft 1 kts 257°
2026-05-04 22:18 -33.93043 151.16782 20 ft 4 kts 257°
2026-05-04 22:19 -33.93037 151.16812 21 ft 4 kts 257°
2026-05-04 22:19 -33.93031 151.16841 24 ft 4 kts 255°
2026-05-04 22:19 -33.93023 151.16869 20 ft 4 kts 240°
2026-05-04 22:19 -33.93007 151.16892 20 ft 4 kts 182°
2026-05-04 22:20 -33.92992 151.16889 23 ft 0 kts 168°
2026-05-04 22:20 -33.92991 151.16889 23 ft 0 kts 168°
2026-05-04 22:22 -33.92994 151.16890 20 ft 2 kts 168°
2026-05-04 22:22 -33.93046 151.16903 21 ft 14 kts 167°
2026-05-04 22:23 -33.93183 151.16941 20 ft 26 kts 167°
2026-05-04 22:23 -33.93337 151.17049 22 ft 25 kts 156°
2026-05-04 22:23 -33.93520 151.17106 21 ft 29 kts 170°
2026-05-04 22:23 -33.93720 151.17156 17 ft 31 kts 165°
2026-05-04 22:24 -33.94006 151.17230 20 ft 31 kts 168°
2026-05-04 22:24 -33.94148 151.17269 21 ft 31 kts 167°
2026-05-04 22:24 -33.94360 151.17324 25 ft 31 kts 168°
2026-05-04 22:24 -33.94572 151.17373 29 ft 31 kts 167°
2026-05-04 22:25 -33.94791 151.17433 24 ft 34 kts 167°
2026-05-04 22:25 -33.95027 151.17497 20 ft 35 kts 168°
2026-05-04 22:25 -33.95267 151.17554 17 ft 36 kts 168°
2026-05-04 22:25 -33.95515 151.17622 20 ft 36 kts 167°
2026-05-04 22:26 -33.95752 151.17686 25 ft 35 kts 167°
2026-05-04 22:26 -33.95996 151.17747 24 ft 36 kts 169°
2026-05-04 22:26 -33.96242 151.17808 22 ft 37 kts 165°
2026-05-04 22:26 -33.96410 151.17861 25 ft 18 kts 155°
2026-05-04 22:27 -33.96430 151.17986 27 ft 17 kts 77°
2026-05-04 22:27 -33.96387 151.18066 26 ft 2 kts 345°
2026-05-04 22:27 -33.96296 151.18037 25 ft 46 kts 347°
2026-05-04 22:27 -33.95695 151.17880 21 ft 126 kts 348°
2026-05-04 22:28 -33.94669 151.17628 325 ft 160 kts 346°
2026-05-04 22:28 -33.93540 151.17322 1106 ft 173 kts 345°
2026-05-04 22:28 -33.92313 151.17070 1918 ft 183 kts 358°
2026-05-04 22:28 -33.91039 151.17582 2518 ft 209 kts 35°
2026-05-04 22:29 -33.90241 151.19112 3149 ft 230 kts 81°
2026-05-04 22:29 -33.90534 151.20989 3989 ft 230 kts 120°
2026-05-04 22:29 -33.91364 151.22716 4670 ft 250 kts 122°
2026-05-04 22:29 -33.92312 151.24570 5238 ft 271 kts 120°
2026-05-04 22:30 -33.93251 151.26650 5746 ft 293 kts 116°
2026-05-04 22:30 -33.94132 151.28900 6571 ft 300 kts 113°
2026-05-04 22:30 -33.94965 151.31215 7462 ft 304 kts 112°
2026-05-04 22:30 -33.95777 151.33564 8270 ft 311 kts 111°
2026-05-04 22:31 -33.96607 151.35993 9129 ft 317 kts 111°
2026-05-04 22:31 -33.97455 151.38473 9966 ft 323 kts 112°
2026-05-04 22:31 -33.98319 151.40997 10755 ft 329 kts 112°
2026-05-04 22:31 -33.99198 151.43559 11534 ft 334 kts 112°
2026-05-04 22:32 -34.00093 151.46161 12315 ft 338 kts 112°
2026-05-04 22:32 -34.00999 151.48798 13103 ft 343 kts 112°
2026-05-04 22:32 -34.01918 151.51471 13882 ft 348 kts 112°
2026-05-04 22:32 -34.02848 151.54181 14583 ft 352 kts 112°
2026-05-04 22:33 -34.03791 151.56927 15262 ft 356 kts 112°
2026-05-04 22:33 -34.04744 151.59704 15952 ft 361 kts 112°
2026-05-04 22:33 -34.05710 151.62519 16618 ft 365 kts 111°
2026-05-04 22:33 -34.06686 151.65369 17278 ft 370 kts 111°
2026-05-04 22:34 -34.07673 151.68253 17930 ft 375 kts 111°
2026-05-04 22:34 -34.08673 151.71179 18572 ft 379 kts 111°
2026-05-04 22:34 -34.09683 151.74135 19141 ft 383 kts 111°
2026-05-04 22:34 -34.10701 151.77119 19715 ft 387 kts 111°
2026-05-04 22:35 -34.11730 151.80139 20272 ft 391 kts 111°
2026-05-04 22:35 -34.12768 151.83186 20840 ft 395 kts 111°
2026-05-04 22:35 -34.13816 151.86268 21390 ft 399 kts 111°
2026-05-04 22:35 -34.14873 151.89379 21939 ft 403 kts 111°
2026-05-04 22:36 -34.15940 151.92521 22483 ft 406 kts 111°
2026-05-04 22:36 -34.17015 151.95691 23028 ft 410 kts 111°
2026-05-04 22:36 -34.18099 151.98889 23560 ft 414 kts 110°
2026-05-04 22:36 -34.19192 152.02117 24025 ft 417 kts 110°
2026-05-04 22:37 -34.20196 152.05413 24468 ft 419 kts 107°
2026-05-04 22:37 -34.21161 152.08750 24906 ft 423 kts 107°
2026-05-04 22:37 -34.22141 152.12113 25332 ft 426 kts 108°
2026-05-04 22:37 -34.23130 152.15500 25752 ft 429 kts 108°
2026-05-04 22:38 -34.24126 152.18913 26176 ft 432 kts 108°
2026-05-04 22:38 -34.25128 152.22354 26592 ft 435 kts 108°
2026-05-04 22:38 -34.26134 152.25818 26988 ft 438 kts 108°
2026-05-04 22:38 -34.27147 152.29309 27380 ft 442 kts 108°
2026-05-04 22:39 -34.28164 152.32824 27772 ft 444 kts 108°
2026-05-04 22:39 -34.29186 152.36359 28163 ft 447 kts 108°
2026-05-04 22:39 -34.30214 152.39921 28532 ft 450 kts 107°
2026-05-04 22:39 -34.31248 152.43507 28896 ft 453 kts 107°
2026-05-04 22:40 -34.32286 152.47111 29253 ft 455 kts 108°
2026-05-04 22:40 -34.33329 152.50740 29608 ft 458 kts 107°
2026-05-04 22:40 -34.34377 152.54387 29962 ft 460 kts 107°
2026-05-04 22:40 -34.35430 152.58059 30293 ft 463 kts 107°
2026-05-04 22:41 -34.36488 152.61749 30565 ft 466 kts 108°
2026-05-04 22:41 -34.37551 152.65465 30872 ft 468 kts 108°
2026-05-04 22:41 -34.38617 152.69196 31210 ft 469 kts 108°
2026-05-04 22:41 -34.39683 152.72932 31543 ft 470 kts 108°
2026-05-04 22:42 -34.40750 152.76675 31890 ft 471 kts 108°
2026-05-04 22:42 -34.41817 152.80425 32206 ft 471 kts 108°
2026-05-04 22:42 -34.42884 152.84181 32511 ft 473 kts 108°
2026-05-04 22:42 -34.43940 152.87901 32825 ft 473 kts 108°
2026-05-04 22:43 -34.45009 152.91670 33135 ft 474 kts 108°
2026-05-04 22:43 -34.46077 152.95446 33433 ft 474 kts 108°
2026-05-04 22:43 -34.47147 152.99229 33725 ft 475 kts 108°
2026-05-04 22:43 -34.48217 153.03018 34011 ft 475 kts 108°
2026-05-04 22:44 -34.49286 153.06811 34248 ft 476 kts 108°
2026-05-04 22:44 -34.50355 153.10607 34471 ft 476 kts 108°
2026-05-04 22:44 -34.51427 153.14418 34680 ft 477 kts 108°
2026-05-04 22:44 -34.52496 153.18226 34891 ft 478 kts 108°
2026-05-04 22:45 -34.53568 153.22049 35083 ft 479 kts 108°
2026-05-04 22:45 -34.55712 153.29710 35469 ft 481 kts 108°
2026-05-04 22:45 -34.56786 153.33553 35666 ft 481 kts 108°
2026-05-04 22:46 -34.57858 153.37397 35840 ft 482 kts 108°
2026-05-04 22:46 -34.58931 153.41249 36031 ft 482 kts 108°
2026-05-04 22:46 -34.60005 153.45110 36191 ft 483 kts 108°
2026-05-04 22:46 -34.61078 153.48975 36355 ft 483 kts 108°
2026-05-04 22:47 -34.62152 153.52845 36509 ft 484 kts 108°
2026-05-04 22:47 -34.63225 153.56721 36664 ft 485 kts 108°
2026-05-04 22:47 -34.64300 153.60605 36820 ft 485 kts 108°
2026-05-04 22:47 -34.65373 153.64491 36961 ft 486 kts 108°
2026-05-04 22:48 -34.66447 153.68386 37091 ft 487 kts 108°
2026-05-04 22:48 -34.67508 153.72237 37213 ft 488 kts 108°
2026-05-04 22:48 -34.68583 153.76146 37343 ft 488 kts 108°
2026-05-04 22:48 -34.69659 153.80063 37454 ft 489 kts 108°
2026-05-04 22:49 -34.71816 153.87936 37623 ft 492 kts 108°
2026-05-04 22:49 -34.73979 153.95850 37807 ft 493 kts 108°
2026-05-04 22:50 -34.75059 153.99811 37939 ft 493 kts 108°
2026-05-04 22:50 -34.76138 154.03775 37959 ft 496 kts 108°
2026-05-04 22:50 -34.78314 154.11782 38077 ft 500 kts 108°
2026-05-04 22:51 -34.80506 154.19873 38078 ft 507 kts 108°
2026-05-04 22:51 -34.82723 154.28080 38081 ft 514 kts 108°
2026-05-04 22:52 -34.84966 154.36410 38078 ft 521 kts 108°
2026-05-04 22:52 -34.87234 154.44858 38080 ft 529 kts 108°
2026-05-04 22:53 -34.89525 154.53422 38080 ft 536 kts 108°
2026-05-04 22:53 -34.91844 154.62115 38078 ft 543 kts 108°
2026-05-04 22:54 -34.94185 154.70921 38075 ft 549 kts 108°
2026-05-04 22:54 -34.96544 154.79824 38072 ft 554 kts 108°
2026-05-04 22:55 -34.98914 154.88796 38072 ft 557 kts 108°
2026-05-04 22:55 -35.01287 154.97799 38070 ft 557 kts 108°
2026-05-04 22:56 -35.02465 155.02270 38057 ft 546 kts 107°
2026-05-04 22:56 -35.03592 155.06580 38065 ft 525 kts 107°
2026-05-04 22:56 -35.05811 155.15091 38066 ft 529 kts 107°
2026-05-04 22:57 -35.08048 155.23677 38061 ft 533 kts 107°
2026-05-04 22:57 -35.10295 155.32325 38064 ft 536 kts 107°
2026-05-04 22:58 -35.12543 155.41010 38133 ft 537 kts 107°
2026-05-04 22:58 -35.14787 155.49710 38238 ft 537 kts 107°
2026-05-04 22:59 -35.17026 155.58418 38325 ft 537 kts 107°
2026-05-04 22:59 -35.19261 155.67143 38411 ft 538 kts 107°
2026-05-04 23:00 -35.21483 155.75843 38750 ft 532 kts 107°
2026-05-04 23:00 -35.22580 155.80149 38972 ft 529 kts 107°
2026-05-04 23:00 -35.23671 155.84441 39069 ft 529 kts 107°
2026-05-04 23:01 -35.25845 155.93011 39071 ft 533 kts 107°
2026-05-04 23:01 -35.28041 156.01697 39075 ft 536 kts 107°
2026-05-04 23:02 -35.30242 156.10432 39079 ft 538 kts 107°
2026-05-04 23:02 -35.32443 156.19197 39097 ft 539 kts 107°
2026-05-04 23:03 -35.34645 156.27993 39091 ft 541 kts 107°
2026-05-04 23:03 -35.36844 156.36813 39098 ft 542 kts 107°
2026-05-04 23:04 -35.39040 156.45647 39095 ft 542 kts 107°
2026-05-04 23:04 -35.41228 156.54484 39097 ft 542 kts 107°
2026-05-04 23:05 -35.43413 156.63335 39099 ft 543 kts 107°
2026-05-04 23:05 -35.45594 156.72205 39102 ft 543 kts 107°
2026-05-04 23:06 -35.47770 156.81082 39101 ft 543 kts 107°
2026-05-04 23:06 -35.49939 156.89964 39101 ft 543 kts 107°
2026-05-04 23:07 -35.52099 156.98837 39103 ft 543 kts 107°
2026-05-04 23:07 -35.54252 157.07719 39102 ft 543 kts 107°
2026-05-04 23:08 -35.56398 157.16599 39113 ft 542 kts 107°
2026-05-04 23:08 -35.58537 157.25485 39107 ft 542 kts 107°
2026-05-04 23:09 -35.60669 157.34370 39116 ft 542 kts 107°
2026-05-04 23:09 -35.62779 157.43196 39118 ft 542 kts 107°
2026-05-04 23:10 -35.64897 157.52089 39118 ft 542 kts 107°
2026-05-04 23:10 -35.67007 157.60979 39114 ft 541 kts 107°
2026-05-04 23:11 -35.69109 157.69870 39119 ft 541 kts 107°
2026-05-04 23:11 -35.71203 157.78757 39122 ft 541 kts 107°
2026-05-04 23:12 -35.73290 157.87650 39124 ft 540 kts 107°
2026-05-04 23:12 -35.75032 157.95092 39127 ft 540 kts 107°
2026-05-04 23:13 -35.77103 158.03964 39125 ft 539 kts 107°
2026-05-04 23:13 -35.78873 158.12926 39123 ft 539 kts 102°
2026-05-04 23:14 -35.80367 158.21619 39134 ft 538 kts 102°
2026-05-04 23:14 -35.81930 158.30629 39137 ft 537 kts 102°
2026-05-04 23:15 -35.83311 158.38669 39139 ft 537 kts 102°
2026-05-04 23:15 -35.84890 158.47947 39145 ft 536 kts 102°
2026-05-04 23:16 -35.86400 158.56881 39139 ft 536 kts 102°
2026-05-04 23:16 -35.87911 158.65866 39142 ft 535 kts 102°
2026-05-04 23:17 -35.89415 158.74849 39145 ft 534 kts 102°
2026-05-04 23:17 -35.90909 158.83817 39150 ft 534 kts 102°
2026-05-04 23:18 -35.92395 158.92779 39154 ft 533 kts 102°
2026-05-04 23:18 -35.93872 159.01731 39155 ft 532 kts 102°
2026-05-04 23:19 -35.95340 159.10672 39153 ft 531 kts 102°
2026-05-04 23:19 -35.96799 159.19605 39159 ft 530 kts 102°
2026-05-04 23:20 -35.98249 159.28520 39167 ft 529 kts 102°
2026-05-04 23:20 -35.99690 159.37432 39169 ft 529 kts 102°
2026-05-04 23:21 -36.01122 159.46326 39168 ft 528 kts 102°
2026-05-04 23:21 -36.02546 159.55214 39176 ft 527 kts 102°
2026-05-04 23:22 -36.03962 159.64098 39178 ft 526 kts 102°
2026-05-04 23:22 -36.05369 159.72971 39178 ft 526 kts 102°
2026-05-04 23:23 -36.06759 159.81776 39181 ft 525 kts 101°
2026-05-04 23:23 -36.08150 159.90636 39186 ft 525 kts 101°
2026-05-04 23:24 -36.09533 159.99485 39192 ft 524 kts 101°
2026-05-04 23:24 -36.10908 160.08334 39190 ft 524 kts 101°
2026-05-04 23:25 -36.12275 160.17172 39199 ft 523 kts 101°
2026-05-04 23:25 -36.13635 160.26008 39193 ft 522 kts 101°
2026-05-04 23:26 -36.14984 160.34826 39196 ft 521 kts 101°
2026-05-04 23:26 -36.16328 160.43646 39207 ft 521 kts 101°
2026-05-04 23:27 -36.17662 160.52451 39211 ft 521 kts 101°
2026-05-04 23:27 -36.18989 160.61261 39207 ft 520 kts 101°
2026-05-04 23:28 -36.20309 160.70065 39212 ft 520 kts 101°
2026-05-04 23:28 -36.21622 160.78865 39212 ft 520 kts 101°
2026-05-04 23:29 -36.22928 160.87666 39216 ft 519 kts 101°
2026-05-04 23:29 -36.24227 160.96468 39225 ft 519 kts 101°
2026-05-04 23:30 -36.25518 161.05263 39223 ft 519 kts 101°
2026-05-04 23:30 -36.26803 161.14060 39230 ft 519 kts 101°
2026-05-04 23:31 -36.28081 161.22856 39233 ft 518 kts 101°
2026-05-04 23:31 -36.29351 161.31649 39234 ft 518 kts 101°
2026-05-04 23:32 -36.30614 161.40441 39239 ft 518 kts 101°
2026-05-04 23:32 -36.31870 161.49229 39240 ft 518 kts 101°
2026-05-04 23:33 -36.33119 161.58016 39249 ft 517 kts 100°
2026-05-04 23:33 -36.34352 161.66735 39241 ft 517 kts 100°
2026-05-04 23:34 -36.35586 161.75515 39249 ft 516 kts 100°
2026-05-04 23:34 -36.36813 161.84292 39249 ft 516 kts 100°
2026-05-04 23:35 -36.38032 161.93060 39254 ft 516 kts 100°
2026-05-04 23:35 -36.39245 162.01831 39257 ft 515 kts 100°
2026-05-04 23:36 -36.40450 162.10594 39258 ft 515 kts 100°
2026-05-04 23:36 -36.41647 162.19348 39261 ft 514 kts 100°
2026-05-04 23:37 -36.42837 162.28101 39265 ft 514 kts 100°
2026-05-04 23:37 -36.44019 162.36845 39265 ft 513 kts 100°
2026-05-04 23:38 -36.45194 162.45587 39266 ft 513 kts 100°
2026-05-04 23:38 -36.46361 162.54322 39271 ft 512 kts 100°
2026-05-04 23:39 -36.47521 162.63052 39282 ft 512 kts 100°
2026-05-04 23:39 -36.48675 162.71784 39275 ft 512 kts 100°
2026-05-04 23:40 -36.49820 162.80505 39283 ft 511 kts 100°
2026-05-04 23:40 -36.50962 162.89221 39282 ft 511 kts 100°
2026-05-04 23:41 -36.52099 162.97935 39289 ft 510 kts 100°
2026-05-04 23:41 -36.53212 163.06646 39292 ft 510 kts 99°
2026-05-04 23:42 -36.54309 163.15359 39290 ft 510 kts 99°
2026-05-04 23:42 -36.55418 163.24066 39296 ft 509 kts 99°
2026-05-04 23:43 -36.56525 163.32762 39302 ft 509 kts 99°
2026-05-04 23:43 -36.57625 163.41460 39306 ft 509 kts 99°
2026-05-04 23:44 -36.58716 163.50156 39305 ft 508 kts 99°
2026-05-04 23:44 -36.59788 163.58786 39310 ft 508 kts 99°
2026-05-04 23:45 -36.60861 163.67472 39311 ft 508 kts 99°
2026-05-04 23:45 -36.61926 163.76153 39321 ft 507 kts 99°
2026-05-04 23:46 -36.62984 163.84828 39314 ft 507 kts 99°
2026-05-04 23:46 -36.64035 163.93501 39321 ft 506 kts 99°
2026-05-04 23:47 -36.65078 164.02163 39321 ft 506 kts 99°
2026-05-04 23:47 -36.66116 164.10826 39324 ft 505 kts 99°
2026-05-04 23:48 -36.67145 164.19482 39333 ft 505 kts 99°
2026-05-04 23:48 -36.68167 164.28128 39334 ft 505 kts 99°
2026-05-04 23:49 -36.69182 164.36776 39333 ft 504 kts 99°
2026-05-04 23:49 -36.70191 164.45418 39336 ft 504 kts 99°
2026-05-04 23:50 -36.71192 164.54061 39335 ft 504 kts 99°
2026-05-04 23:50 -36.72188 164.62704 39341 ft 504 kts 98°
2026-05-04 23:51 -36.73176 164.71341 39348 ft 503 kts 98°
2026-05-04 23:51 -36.74157 164.79975 39344 ft 503 kts 98°
2026-05-04 23:52 -36.75131 164.88604 39353 ft 502 kts 98°
2026-05-04 23:52 -36.76098 164.97226 39352 ft 502 kts 98°
2026-05-04 23:53 -36.77058 165.05841 39357 ft 501 kts 98°
2026-05-04 23:53 -36.78011 165.14456 39360 ft 501 kts 98°
2026-05-04 23:54 -36.78958 165.23064 39361 ft 501 kts 98°
2026-05-04 23:54 -36.79897 165.31672 39361 ft 501 kts 98°
2026-05-04 23:55 -36.80830 165.40279 39366 ft 500 kts 98°
2026-05-04 23:56 -36.82211 165.53127 39373 ft 500 kts 98°
2026-05-04 23:56 -36.83128 165.61730 39369 ft 500 kts 98°
2026-05-04 23:57 -36.84038 165.70332 39373 ft 500 kts 98°
2026-05-04 23:57 -36.84942 165.78936 39375 ft 500 kts 98°
2026-05-04 23:58 -36.85839 165.87538 39377 ft 500 kts 98°
2026-05-04 23:58 -36.86729 165.96137 39381 ft 499 kts 98°
2026-05-04 23:59 -36.87614 166.04736 39381 ft 499 kts 98°
2026-05-04 23:59 -36.88492 166.13340 39385 ft 499 kts 98°
2026-05-05 00:00 -36.89363 166.21937 39384 ft 499 kts 98°
2026-05-05 00:00 -36.90082 166.29084 39387 ft 499 kts 98°
2026-05-05 00:01 -36.90942 166.37684 39389 ft 498 kts 98°
2026-05-05 00:01 -36.91794 166.46271 39390 ft 498 kts 98°
2026-05-05 00:02 -36.92641 166.54864 39395 ft 498 kts 98°
2026-05-05 00:02 -36.93481 166.63457 39394 ft 498 kts 98°
2026-05-05 00:03 -36.94314 166.72045 39396 ft 498 kts 98°
2026-05-05 00:03 -36.95141 166.80639 39400 ft 498 kts 98°
2026-05-05 00:04 -36.95962 166.89236 39404 ft 498 kts 98°
2026-05-05 00:04 -36.96776 166.97822 39404 ft 497 kts 98°
2026-05-05 00:05 -36.97584 167.06412 39404 ft 497 kts 98°
2026-05-05 00:05 -36.98385 167.15002 39407 ft 497 kts 98°
2026-05-05 00:06 -36.99174 167.23527 39409 ft 497 kts 98°
2026-05-05 00:06 -36.99963 167.32112 39410 ft 497 kts 98°
2026-05-05 00:07 -37.00744 167.40694 39412 ft 497 kts 98°
2026-05-05 00:07 -37.01520 167.49277 39415 ft 497 kts 97°
2026-05-05 00:08 -37.02289 167.57860 39416 ft 496 kts 97°
2026-05-05 00:08 -37.03051 167.66439 39419 ft 496 kts 97°
2026-05-05 00:09 -37.03808 167.75019 39419 ft 496 kts 97°
2026-05-05 00:09 -37.04557 167.83595 39425 ft 496 kts 97°
2026-05-05 00:10 -37.05300 167.92171 39422 ft 495 kts 97°
2026-05-05 00:10 -37.06036 168.00742 39422 ft 495 kts 97°
2026-05-05 00:11 -37.06765 168.09294 39309 ft 491 kts 97°
2026-05-05 00:11 -37.07124 168.13540 38846 ft 489 kts 97°
2026-05-05 00:11 -37.07480 168.17768 38123 ft 488 kts 97°
2026-05-05 00:11 -37.07834 168.21978 37595 ft 484 kts 97°
2026-05-05 00:12 -37.08185 168.26175 37446 ft 487 kts 97°
2026-05-05 00:12 -37.08890 168.34666 37424 ft 492 kts 97°
2026-05-05 00:13 -37.09586 168.43127 37429 ft 491 kts 97°
2026-05-05 00:13 -37.10284 168.51694 37432 ft 491 kts 97°
2026-05-05 00:14 -37.10967 168.60142 37430 ft 491 kts 97°
2026-05-05 00:14 -37.11647 168.68639 37433 ft 490 kts 97°
2026-05-05 00:15 -37.12322 168.77140 37433 ft 490 kts 97°
2026-05-05 00:15 -37.12656 168.81374 37300 ft 487 kts 96°
2026-05-05 00:15 -37.12986 168.85582 36824 ft 484 kts 96°
2026-05-05 00:15 -37.13314 168.89777 36117 ft 483 kts 96°
2026-05-05 00:16 -37.13638 168.93956 35642 ft 481 kts 96°
2026-05-05 00:16 -37.13964 168.98157 35487 ft 487 kts 96°
2026-05-05 00:16 -37.14291 169.02397 35535 ft 490 kts 96°
2026-05-05 00:16 -37.14616 169.06642 35652 ft 490 kts 96°
2026-05-05 00:17 -37.14940 169.10890 35730 ft 489 kts 96°
2026-05-05 00:17 -37.15583 169.19380 35810 ft 489 kts 96°
2026-05-05 00:18 -37.16219 169.27858 35841 ft 489 kts 96°
2026-05-05 00:18 -37.16849 169.36338 35853 ft 488 kts 96°
2026-05-05 00:19 -37.17472 169.44810 35858 ft 488 kts 96°
2026-05-05 00:19 -37.18089 169.53277 35860 ft 488 kts 96°
2026-05-05 00:20 -37.18700 169.61743 35857 ft 487 kts 96°
2026-05-05 00:20 -37.19304 169.70210 35861 ft 487 kts 96°
2026-05-05 00:21 -37.19903 169.78675 35861 ft 487 kts 96°
2026-05-05 00:21 -37.20495 169.87138 35863 ft 487 kts 96°
2026-05-05 00:22 -37.21081 169.95602 35861 ft 487 kts 96°
2026-05-05 00:22 -37.21661 170.04061 35868 ft 487 kts 96°
2026-05-05 00:23 -37.22234 170.12522 35868 ft 487 kts 96°
2026-05-05 00:23 -37.22798 170.20925 35868 ft 486 kts 95°
2026-05-05 00:24 -37.23359 170.29383 35866 ft 486 kts 95°
2026-05-05 00:24 -37.23637 170.33599 35696 ft 483 kts 95°
2026-05-05 00:24 -37.23914 170.37796 35499 ft 484 kts 95°
2026-05-05 00:25 -37.24468 170.46252 35455 ft 487 kts 95°
2026-05-05 00:25 -37.25018 170.54715 35447 ft 486 kts 95°
2026-05-05 00:26 -37.25552 170.63179 35451 ft 486 kts 94°
2026-05-05 00:26 -37.25523 170.71647 35221 ft 483 kts 88°
2026-05-05 00:26 -37.25393 170.75855 34650 ft 482 kts 89°
2026-05-05 00:27 -37.25281 170.80064 33797 ft 482 kts 89°
2026-05-05 00:27 -37.25173 170.84273 32801 ft 483 kts 89°
2026-05-05 00:27 -37.25060 170.88496 31789 ft 485 kts 89°
2026-05-05 00:27 -37.24942 170.92729 30891 ft 485 kts 89°
2026-05-05 00:28 -37.24820 170.96929 30280 ft 478 kts 89°
2026-05-05 00:28 -37.24698 171.01073 29607 ft 472 kts 89°
2026-05-05 00:28 -37.24575 171.05168 28953 ft 467 kts 89°
2026-05-05 00:28 -37.24453 171.09197 28555 ft 457 kts 89°
2026-05-05 00:29 -37.24331 171.13192 28464 ft 461 kts 88°
2026-05-05 00:29 -37.24081 171.21274 28458 ft 463 kts 88°
2026-05-05 00:30 -37.23824 171.29351 28459 ft 463 kts 88°
2026-05-05 00:30 -37.23561 171.37487 28459 ft 476 kts 88°
2026-05-05 00:31 -37.23283 171.45885 28458 ft 490 kts 88°
2026-05-05 00:31 -37.22994 171.54418 28470 ft 489 kts 88°
2026-05-05 00:32 -37.22698 171.62956 28460 ft 490 kts 88°
2026-05-05 00:32 -37.22398 171.71490 28465 ft 489 kts 88°
2026-05-05 00:33 -37.22090 171.80014 28463 ft 489 kts 88°
2026-05-05 00:33 -37.21777 171.88539 28465 ft 489 kts 88°
2026-05-05 00:33 -37.21619 171.92776 28234 ft 485 kts 87°
2026-05-05 00:34 -37.21462 171.96984 27669 ft 480 kts 87°
2026-05-05 00:34 -37.21304 172.01146 27023 ft 475 kts 87°
2026-05-05 00:34 -37.21148 172.05256 26363 ft 469 kts 86°
2026-05-05 00:34 -37.20993 172.09309 25688 ft 463 kts 86°
2026-05-05 00:35 -37.20838 172.13318 25032 ft 457 kts 86°
2026-05-05 00:35 -37.20683 172.17263 24637 ft 448 kts 86°
2026-05-05 00:35 -37.20528 172.21183 24503 ft 453 kts 86°
2026-05-05 00:35 -37.20372 172.25105 24469 ft 447 kts 85°
2026-05-05 00:36 -37.20216 172.28988 24469 ft 446 kts 85°
2026-05-05 00:36 -37.20057 172.32876 24459 ft 446 kts 85°
2026-05-05 00:36 -37.19898 172.36740 24187 ft 442 kts 85°
2026-05-05 00:36 -37.19740 172.40576 23612 ft 439 kts 85°
2026-05-05 00:37 -37.19582 172.44368 22770 ft 431 kts 85°
2026-05-05 00:37 -37.19426 172.48088 21773 ft 424 kts 85°
2026-05-05 00:37 -37.19270 172.51750 20807 ft 417 kts 85°
2026-05-05 00:37 -37.19117 172.55351 19863 ft 411 kts 85°
2026-05-05 00:38 -37.18965 172.58900 18942 ft 404 kts 85°
2026-05-05 00:38 -37.18817 172.62344 17937 ft 398 kts 85°
2026-05-05 00:38 -37.18667 172.65788 16915 ft 392 kts 85°
2026-05-05 00:38 -37.18517 172.69223 15908 ft 387 kts 84°
2026-05-05 00:39 -37.18371 172.72522 14975 ft 381 kts 84°
2026-05-05 00:39 -37.18225 172.75822 14024 ft 377 kts 84°
2026-05-05 00:39 -37.18079 172.79080 13037 ft 372 kts 84°
2026-05-05 00:39 -37.17934 172.82300 12070 ft 368 kts 84°
2026-05-05 00:40 -37.17791 172.85480 11207 ft 362 kts 84°
2026-05-05 00:40 -37.17648 172.88620 10758 ft 363 kts 84°
2026-05-05 00:40 -37.17501 172.91786 10563 ft 363 kts 84°
2026-05-05 00:40 -37.17355 172.94945 10484 ft 363 kts 84°
2026-05-05 00:41 -37.17208 172.98104 10479 ft 363 kts 84°
2026-05-05 00:41 -37.17061 173.01253 10451 ft 361 kts 84°
2026-05-05 00:41 -37.16915 173.04382 10124 ft 358 kts 84°
2026-05-05 00:41 -37.16767 173.07500 9991 ft 360 kts 84°
2026-05-05 00:42 -37.16618 173.10626 9966 ft 359 kts 84°
2026-05-05 00:42 -37.16469 173.13752 9969 ft 359 kts 84°
2026-05-05 00:42 -37.16319 173.16873 9969 ft 359 kts 84°
2026-05-05 00:42 -37.16168 173.19998 9956 ft 359 kts 84°
2026-05-05 00:43 -37.16017 173.23116 9967 ft 358 kts 84°
2026-05-05 00:43 -37.15866 173.26236 9958 ft 358 kts 84°
2026-05-05 00:43 -37.15713 173.29352 9968 ft 358 kts 84°
2026-05-05 00:43 -37.15559 173.32470 9973 ft 358 kts 84°
2026-05-05 00:44 -37.15406 173.35589 9961 ft 358 kts 84°
2026-05-05 00:44 -37.15251 173.38705 9968 ft 359 kts 84°
2026-05-05 00:44 -37.15099 173.41799 9973 ft 346 kts 84°
2026-05-05 00:44 -37.14956 173.44725 9968 ft 327 kts 84°
2026-05-05 00:45 -37.14809 173.47498 9970 ft 316 kts 83°
2026-05-05 00:45 -37.14640 173.50271 9970 ft 320 kts 83°
2026-05-05 00:45 -37.14467 173.53047 9966 ft 319 kts 83°
2026-05-05 00:45 -37.14297 173.55823 9966 ft 319 kts 83°
2026-05-05 00:46 -37.14128 173.58600 9967 ft 320 kts 83°
2026-05-05 00:46 -37.13960 173.61375 9966 ft 320 kts 83°
2026-05-05 00:46 -37.13793 173.64153 9968 ft 319 kts 83°
2026-05-05 00:46 -37.13625 173.66929 9974 ft 319 kts 83°
2026-05-05 00:47 -37.13457 173.69704 9963 ft 319 kts 83°
2026-05-05 00:47 -37.13288 173.72482 9968 ft 320 kts 83°
2026-05-05 00:47 -37.13121 173.75225 9955 ft 319 kts 83°
2026-05-05 00:47 -37.12952 173.77989 9732 ft 317 kts 83°
2026-05-05 00:48 -37.12784 173.80738 9303 ft 316 kts 83°
2026-05-05 00:48 -37.12616 173.83464 8687 ft 312 kts 83°
2026-05-05 00:48 -37.12450 173.86164 7981 ft 310 kts 83°
2026-05-05 00:48 -37.12284 173.88840 7304 ft 307 kts 83°
2026-05-05 00:49 -37.12119 173.91492 6638 ft 304 kts 83°
2026-05-05 00:49 -37.11954 173.94117 5959 ft 301 kts 83°
2026-05-05 00:49 -37.11791 173.96711 5352 ft 296 kts 83°
2026-05-05 00:49 -37.11631 173.99261 5067 ft 296 kts 83°
2026-05-05 00:50 -37.11466 174.01835 4977 ft 295 kts 83°
2026-05-05 00:50 -37.11304 174.04388 4968 ft 290 kts 83°
2026-05-05 00:50 -37.11153 174.06796 4970 ft 265 kts 83°
2026-05-05 00:50 -37.11059 174.08314 4969 ft 254 kts 83°
2026-05-05 00:51 -37.10918 174.10515 4972 ft 254 kts 83°
2026-05-05 00:51 -37.10775 174.12718 4974 ft 254 kts 83°
2026-05-05 00:51 -37.10634 174.14893 4974 ft 254 kts 83°
2026-05-05 00:51 -37.10488 174.17128 4944 ft 253 kts 83°
2026-05-05 00:52 -37.10346 174.19290 4732 ft 251 kts 83°
2026-05-05 00:52 -37.10204 174.21465 4414 ft 250 kts 82°
2026-05-05 00:52 -37.10062 174.23629 4097 ft 248 kts 82°
2026-05-05 00:52 -37.09921 174.25772 3989 ft 250 kts 82°
2026-05-05 00:53 -37.09777 174.27944 3970 ft 249 kts 83°
2026-05-05 00:53 -37.09636 174.30102 3970 ft 248 kts 82°
2026-05-05 00:53 -37.09494 174.32245 3767 ft 247 kts 82°
2026-05-05 00:53 -37.09353 174.34383 3451 ft 246 kts 82°
2026-05-05 00:54 -37.09211 174.36508 3140 ft 244 kts 82°
2026-05-05 00:54 -37.09072 174.38591 2984 ft 235 kts 83°
2026-05-05 00:54 -37.08941 174.40570 2968 ft 220 kts 82°
2026-05-05 00:54 -37.08820 174.42416 2972 ft 213 kts 82°
2026-05-05 00:55 -37.08693 174.44272 2974 ft 211 kts 82°
2026-05-05 00:55 -37.08567 174.46104 2970 ft 212 kts 82°
2026-05-05 00:55 -37.08440 174.47945 2972 ft 213 kts 82°
2026-05-05 00:55 -37.08304 174.49884 2988 ft 245 kts 82°
2026-05-05 00:56 -37.08142 174.52157 2988 ft 269 kts 82°
2026-05-05 00:56 -37.07844 174.54409 2897 ft 256 kts 73°
2026-05-05 00:56 -37.07285 174.56525 2826 ft 255 kts 69°
2026-05-05 00:56 -37.06712 174.58575 2730 ft 240 kts 69°
2026-05-05 00:57 -37.06192 174.60481 2572 ft 226 kts 69°
2026-05-05 00:57 -37.05679 174.62372 2531 ft 229 kts 69°
2026-05-05 00:57 -37.05182 174.64192 2467 ft 209 kts 69°
2026-05-05 00:57 -37.04742 174.65836 2239 ft 192 kts 70°
2026-05-05 00:58 -37.04348 174.67350 1999 ft 173 kts 70°
2026-05-05 00:58 -37.03977 174.68692 1804 ft 151 kts 68°
2026-05-05 00:58 -37.03610 174.69921 1744 ft 149 kts 68°
2026-05-05 00:58 -37.03271 174.71139 1522 ft 146 kts 70°
2026-05-05 00:59 -37.02952 174.72331 1301 ft 145 kts 71°
2026-05-05 00:59 -37.02626 174.73499 1008 ft 138 kts 69°
2026-05-05 00:59 -37.02311 174.74609 691 ft 133 kts 70°
2026-05-05 00:59 -37.02019 174.75694 423 ft 134 kts 69°
2026-05-05 01:00 -37.01718 174.76776 159 ft 130 kts 68°
2026-05-05 01:00 -37.01430 174.77820 37 ft 120 kts 69°
2026-05-05 01:00 -37.01186 174.78700 27 ft 80 kts 68°
2026-05-05 01:00 -37.01060 174.79124 28 ft 46 kts 71°
2026-05-05 01:01 -37.00953 174.79490 27 ft 44 kts 63°
2026-05-05 01:01 -37.00761 174.79733 28 ft 21 kts 31°
2026-05-05 01:01 -37.00723 174.79733 29 ft 9 kts 320°
2026-05-05 01:01 -37.00735 174.79633 27 ft 23 kts 253°
2026-05-05 01:02 -37.00813 174.79338 28 ft 47 kts 252°
2026-05-05 01:02 -37.00913 174.78981 26 ft 33 kts 245°
2026-05-05 01:02 -37.00886 174.78868 26 ft 6 kts
2026-05-05 01:02 -37.00834 174.78876 26 ft 9 kts 22°
2026-05-05 01:03 -37.00776 174.78922 27 ft 11 kts 33°
2026-05-05 01:03 -37.00762 174.78932 27 ft 0 kts 33°